Regional Weather Roundup
Issued by NWS Newport/Morehead, NC

Current Version | Previous Version | Graphics & Text | Print | Product List | Glossary Off
Versions: 1 2 3 4 5 6 7 8 9 10 11 12 13 14 15 16 17 18 19 20 21 22 23 24 25 26 27 28 29 30 31 32 33 34 35 36 37 38 39 40 41 42 43 44 45 46 47 48 49 50

000
ASUS42 KMHX 260013
RWRMHX
WEATHER ROUNDUP FOR EASTERN NORTH CAROLINA
NATIONAL WEATHER SERVICE NEWPORT/MOREHEAD CITY NC
800 PM EDT SUN JUN 25 2017

NOTE: "FAIR" INDICATES FEW OR NO CLOUDS BELOW 12,000 FEET
WITH NO SIGNIFICANT WEATHER AND/OR OBSTRUCTIONS TO VISIBILITY

NCZ015>017-031-032-045>047-102-103-260100-
NORTH COAST

CITY           SKY/WX    TMP DP  RH WIND       PRES   REMARKS
EDENTON        MOCLDY    83  68  60 CALM      30.02R
ELIZABETH CITY PTCLDY    80  74  81 CALM      30.01R
KITTY HAWK     MOCLDY    82  72  71 CALM      30.00R
MANTEO         PTCLDY    81  74  79 CALM      30.01R

$$

NCZ045>047-081-094-103-104-260100-
CENTRAL COAST

CITY           SKY/WX    TMP DP  RH WIND       PRES   REMARKS
FRISCO         CLOUDY    80  75  84 SW8       30.02R

$$

NCZ095-097-098-100-101-260100-
SOUTHERN COAST

CITY           SKY/WX    TMP DP  RH WIND       PRES   REMARKS
BEAUFORT       LGT RAIN  77  75  93 W5        30.03R
CEDAR ISLAND   NOT AVBL
JACKSONVILLE   CLOUDY    82  75  79 CALM      30.03R
PINEY ISLAND   CLOUDY   N/A N/A N/A SW6       30.02R
WILMINGTON     LGT RAIN  74  72  93 SW9       30.07R


$$

NCZ011>013-027>030-043-044-078>080-089-090>093-098-260100-
COASTAL PLAIN

CITY           SKY/WX    TMP DP  RH WIND       PRES   REMARKS
AHOSKIE          N/A     75  70  85 CALM      30.04R
CLINTON        CLOUDY    81  72  73 NW3       30.05R
ELIZABETHTOWN  NOT AVBL
GOLDSBORO      NOT AVBL
GREENVILLE     CLOUDY    81  64  57 CALM      30.05R
HAVELOCK       CLOUDY    76  71  85 SW6       30.04R
KENANSVILLE    CLOUDY    81  72  74 CALM      30.05R
KINSTON        CLOUDY    79  68  69 NW5       30.05R
NEW BERN       CLOUDY    80  74  81 S3        30.04R
RICHLANDS      CLOUDY    79  76  90 CALM      30.05R
ROCKY MOUNT    CLOUDY    80  64  58 W5        30.05R
WASHINGTON     MOCLDY   N/A N/A N/A CALM      30.03R
WHITEVILLE     NOT AVBL

$$

AMZ130-135-150-152-154-156-158-170-250-252-270-ANZ085-086-088-633-658-670-260100-
MARINE OBSERVATIONS

STATION/POSITION TIME  TEMP    WIND        PRES    WAVE   SWELL
                       AIR SEA DIR/SP/G            HT/PER HT/PER
                 (UTC) (F)     (DEG/KT/KT) (MB)    (FT/S) (FT/S)
CHESAPEAKE LIGHT NOT AVBL
64 E VA BEACH    2350   75 76  180/  2/  4 1016.6    3/ 6   3/ 6
DUCK             2348   73 63   20/  9/  9 1015.8
2 E DUCK         NOT AVBL
OREGON INLET     2342   83 83  210/  6/  8 1015.9
13E OREGON INLT  2348      76                N/A     2/ 7   2/ 7
HATTERAS CG      2348   79 79  230/  6/  9 1016.5
DIAMOND BUOY     2350   79 80  250/ 10/ 12 1016.6    3/ 8   2/ 8
CAPE LOOKOUT     0000   78     290/  8/ 10 1016.7
BEAUFORT LAB     2348   77 79  250/  4/  7 1016.3
30 SE NEW RVR IN 2308   80 81  250/ 12/ 16 1016.9
30 SE NEW RVR IN 2343      81                N/A     4/ 6
27 SE WRIGHTSVLE 2308   78 80  240/ 16/ 21 1016.8
5 SE WRIGHTSVLE  2308   80 80  230/ 12/ 17 1017.1
225 S CAPE HAT   2350   81 81  200/ 12/ 14 1019.7    4/ 6   3/ 6
41 SE CHARLESTON 2350   79 81  340/  6/  8 1017.6    3/ 6   3/ 6

$$



USA.gov is the U.S. government's official web portal to all federal, state and local government web resources and services.